THORAD AGENA D DEB, 5024

Orbit data source: Space-Track

THORAD AGENA D DEB, 5024 is space debris in SSO originally from a launch on Wed, 08 Apr 1970 UTC launched from the Air Force Western Test Range (AFWTR). Debris objects in space refer to the collection of defunct objects orbiting the Earth. Examples of debris include non-operational satellites, rocket bodies, and fragments generated from explosions, collisions, or faulty payload assembly.

Loading next visibility...
Identifier
5024, 1970-025HY
Orbit
SSO
Country
Flag of USUS
Related business
Manufacturer
Unknown
Mission
Spacecraft
Bus & Motor
Unknown
Mass
Unknown
Launch date (UTC)
1970-04-08 (56 years ago)
Launch vehicle
Unknown
Launch site
Air Force Western Test Range (AFWTR)
Object type
Payload
Rocket body
Debris
Shape & HBR
Unknown shape, 0.1 m
Radar Cross Section
Medium (>0.1 m² and <1 m²)

Expand to show TLE details & history
Last TLE update: 6 hours ago

TLE from 6 hours ago
0 THORAD AGENA D DEB
1  5024U 70025HY  26167.16853544  .00001225  00000-0  52204-3 0  9999
2  5024  99.8212 133.4808 0083899 130.0399 230.8176 14.25438343871867
Epoch: 2026-06-16T04:02Z
TLE epoch observation values (Epoch: 2026-06-16T04:02:41.462Z)
Latitude
-0°
Longitude
168.3636°
Altitude
848.299 km
Speed
7.409 km/s
True Right ascension
08h 53m 55s
True Declination
0° 00' 00"
Sunlit
Object was in daylight at epoch
Visualization orbit readout
Latitude
Unknown
Longitude
Unknown
Altitude
Unknown
Speed
Unknown
Apparent Right ascension
Unknown
Apparent Declination
Unknown
Sunlit
N/A
Visualization observer readout
Local Sidereal Time
20:22:12
Azimuth
Unknown
Elevation
Unknown
Doppler factor
Unknown
Orbital elements
Apogee altitude
864.486 km
Perigee altitude
743.968 km
Semi-major axis
7,182.364 km
Eccentricity
0.00839
Inclination
99.8212°
RAAN
133.4808°
Arg. of periapsis
130.0399°
True anomaly
230.0773°
Mean anomaly
230.8176°
Eccentric anomaly
230.44696°
Mean motion
3.56568 °/min
Orbital period
100.96 mins
BSTAR
0.00052204

Documentation

Showing up to 5 results
|